Miscellaneous Local Product
Issued by NWS Hastings, NE

Home | Current Version | Previous Version | Text Only | Print | Product List | Glossary On
Versions: 1 2 3 4 5 6 7 8 9 10 11 12 13 14 15 16 17 18 19 20 21 22 23 24 25 26 27 28 29 30 31 32 33 34 35 36 37 38 39 40 41 42 43 44 45 46 47 48 49 50
000
AXUS43 KGID 010102
MISGRI

GID CWA HOURLY WEATHER ROUNDUP
NATIONAL WEATHER SERVICE HASTINGS NE
700 PM CST SAT JAN 31 2015

NOTE: "FAIR" INDICATES FEW OR NO CLOUDS BELOW 12,000 FEET WITH NO
SIGNIFICANT WEATHER AND/OR OBSTRUCTIONS TO VISIBILITY.

...SOUTH CENTRAL NEBRASKA...

CITY           SKY/WX    TMP DP  RH WIND       PRES   REMARKS
GRAND ISLAND   LGT SNOW  32  31  96 NE6       29.87F VSB 3/4 WCI  26
HASTINGS       LGT SNOW  32  30  92 E5        29.84F VSB 1   WCI  27
KEARNEY        CLOUDY    30  28  93 NE7       29.85S WCI  23
ORD            LGT SNOW  30  28  92 N12       29.88R VSB 1   WCI  20
YORK           LGT SNOW  32  32 100 E5        29.89S WCI  27
AURORA         LGT SNOW  32  32 100 E3        29.87S
LEXINGTON      MIX PCPN  33  32  98 NE6       29.84S WCI  27
HOLDREGE       MIX PCPN  32  32  99 NE6       29.83S WCI  26
HEBRON         LGT SNOW  33  31  96 SE5       29.88S WCI  28

...NEBRASKA PANHANDLE...

CITY           SKY/WX    TMP DP  RH WIND       PRES   REMARKS
CHADRON        FOG       24  22  91 NE15      29.98R VSB 1/2 WCI  11
ALLIANCE       LGT SNOW  24  22  91 NE16      29.89R FOG     WCI  11
SCOTTSBLUFF    CLOUDY    31  28  89 NE12      29.89R WCI  22
SIDNEY         CLOUDY    30  28  92 N10       29.84S WCI  21

...WESTERN AND NORTH CENTRAL NEBRASKA...

CITY           SKY/WX    TMP DP  RH WIND       PRES   REMARKS
VALENTINE      LGT SNOW  19  16  88 NE14      30.00R VSB 3/4 WCI   6
AINSWORTH      LGT SNOW  20  19  93 N13       29.97R WCI   8
ONEILL         LGT SNOW  27  26  96 N13       29.95S WCI  16
BROKEN BOW     LGT SNOW  29  26  89 N13       29.87R FOG     WCI  19
IMPERIAL       LGT SNOW  32  30  92 N10       29.83R FOG     WCI  24
NORTH PLATTE   LGT SNOW  28  25  88 NE13      29.86R FOG     WCI  17
MCCOOK         LGT SNOW  33  31  92 N7        29.82R FOG     WCI  27

...EASTERN NEBRASKA...

CITY           SKY/WX    TMP DP  RH WIND       PRES   REMARKS
NORFOLK        LGT SNOW  33  32  96 E7        29.91F FOG     WCI  27
SO SIOUX CITY  LGT SNOW  33  31  92 E12       29.98F FOG     WCI  24
TEKAMAH        LGT SNOW  33  32  96 E7        29.96F FOG     WCI  27
ALBION         LGT SNOW  33  31  94 E7        29.90S WCI  26
OMAHA EPPLEY   LGT SNOW  33  32  96 SE6       29.95F FOG     WCI  28
MILLARD        LGT SNOW  33  32  96 SE5       29.95F WCI  29
LINCOLN        LGT SNOW  33  32  96 CALM      29.93S FOG
NEBRASKA CITY  LGT SNOW  32  32 100 SE8       29.94F VSB 1   WCI  25
BEATRICE       LGT SNOW  32  32  99 SE7       29.90S WCI  26
FALLS CITY     LGT SNOW  32  32 100 SE9       29.95F VSB 1   WCI  24

...NORTHERN KANSAS...

CITY           SKY/WX    TMP DP  RH WIND       PRES   REMARKS
GOODLAND       LGT SNOW  33  32  96 N9        29.80R FOG     WCI  25
HILL CITY      CLOUDY    39  38  96 E3        29.79S FOG
NORTON         LGT SNOW  34  30  86 N7        29.80  WCI  28
PHILLIPSBURG   DRIZZLE   36  36 100 NE6       29.82S WCI  31
SMITH CENTER   MIX PCPN  32  32 100 E8        29.82F WCI  25
BELOIT         CLOUDY    36  36 100 E5        29.84F WCI  32
HAYS           CLOUDY    39  32  75 S8        29.79F WCI  34
RUSSELL        LGT RAIN  39  38  96 S10       29.80F WCI  32
CONCORDIA      LGT RAIN  34  34 100 E3        29.85F FOG
SALINA         LGT RAIN  40  37  89 S9        29.87F WCI  34
TOPEKA         LGT RAIN  37  35  92 SE13      29.96S WCI  29



USA.gov is the U.S. government's official web portal to all federal, state and local government web resources and services.